Погода в Синевке

Украина / Сумская область     50°32′36″N   34°06′24″E
темп.,
°C
ветер,
м/с
пор.,
м/с
влажн.,
%
обл.,
%
осадки,
мм/ч
давл.,
гПа
погр.,
м
6 марта, сб
сб623:00−3с369099 0.0 1017208
02:00−3с3686100 0.0 1019305
05:00−5ссз3690100 0.0 1019176
08:00−6ссз4987100 0.0 1021304
11:00−4ссз698214 0.0 1022622
14:00−2ссз47767 0.0 1021839
17:00−5з338627 0.0 102265
20:00−6зюз499021 0.0 1022193
7 марта, вс
вс723:00−8зсз47900 0.0 1023113
02:00−9з46910 0.0 1023113
05:00−8юз511820 0.0 1021240
08:00−5юз7157940 0.0 1018490
11:00−1зюз101581100 0.0 1015906
14:000зюз11178399 0.1 10121334
17:00+1зюз91783100 0.1 10101174
20:00−1зюз8178288 0.1 1010742
8 марта, пн
пн823:00−1з7168782 0.0 1009576
02:00−2з6149290 0.0 1009554
05:00−3з51194100 0.1 1009406
08:00−2з51091100 0.1 1010866
11:00−1зсз577897 0.1 10111020
14:00−1сз457695 0.1 10121043
17:00−3зсз228586 0.1 101331
20:00−5ссз128991 0.1 101424
9 марта, вт
вт923:00−5св0190100 0.0 101421
02:00−5ссз1191100 0.0 101422
05:00−5сз229695 0.4 1014108
08:00−5с239494 0.8 1016158
11:00−4с3484100 0.1 1017564
14:00−3ссз568097 0.1 1018845
17:00−6ссз598299 0.1 1020596
20:00−8с4108850 0.1 1023331
10 марта, ср
ср1023:00−10с36910 0.0 1025151
02:00−11ссз23902 0.0 102683
05:00−11ссз22900 0.0 102643
08:00−10зсз128515 0.0 1027111
11:00−6з227071 0.0 1027398
14:00−5з346878 0.0 1026564
17:00−6з238182 0.0 102479
20:00−8зюз338047 0.0 102564